Regional Weather Roundup
Issued by NWS

Home | Current Version | Previous Version | Graphics & Text | Print | Product List | Glossary On
Versions: 1 2 3 4 5 6 7 8 9 10 11 12 13 14 15 16 17 18 19 20 21 22 23 24 25 26 27 28 29 30 31 32 33 34 35 36 37 38 39 40 41 42 43 44 45 46 47 48 49 50
000
ASUS44 KMEG 291700
RWRTN
TENNESSEE HOURLY STATE WEATHER ROUNDUP
NATIONAL WEATHER SERVICE MEMPHIS TN
1200 PM CDT SUN MAY 29 2016

TNZ002-004-019-021-049-052-054-088>092-291800-
WEST TENNESSEE

CITY           SKY/WX    TMP DP  RH WIND       PRES   REMARKS
MEMPHIS INTL   MOSUNNY   85  67  54 VRB3      30.12F
NWS MEMPHIS      N/A     84 N/A N/A MISG        N/A
JACKSON        MOSUNNY   82  68  62 W5        30.12F
DYERSBURG      SUNNY     82  68  61 S3        30.11S
PARIS          MOSUNNY   81  64  57 VRB6      30.13S
$$

TNZ008-025-027-028-033-062-065-066-291800-
NORTH MIDDLE TENNESSEE

CITY           SKY/WX    TMP DP  RH WIND       PRES   REMARKS
NASHVILLE      PTSUNNY   86  65  49 VRB5      30.13F
CLARKSVILLE    MOSUNNY   83  69  62 SW6       30.11S
CROSSVILLE     SUNNY     79  59  50 VRB6      30.19F
$$

TNZ061-075-076-078-094-096-097-291800-
SOUTH MIDDLE TENNESSEE

CITY           SKY/WX    TMP DP  RH WIND       PRES   REMARKS
SHELBYVILLE    MOSUNNY   88  66  48 NW7       30.15F HX  90
$$

TNZ017-018-042-046-047-291800-
NORTHEAST TENNESSEE

CITY           SKY/WX    TMP DP  RH WIND       PRES   REMARKS
TRI CITIES     CLOUDY    75  61  61 CALM      30.16F
$$

TNZ012-013-036-069-073-074-291800-
CENTRAL EAST TENNESSEE

CITY           SKY/WX    TMP DP  RH WIND       PRES   REMARKS
KNOXVILLE      CLOUDY    82  65  56 VRB3      30.13F
OAK RIDGE      SUNNY     83  63  50 CALM      30.14F
GATLINBURG     MOSUNNY   81  63  54 NE6       30.13F
$$

TNZ083-085-099-291800-
SOUTHEAST TENNESSEE

CITY           SKY/WX    TMP DP  RH WIND       PRES   REMARKS
CHATTANOOGA    PTSUNNY   85  61  44 VRB5      30.13F
$$

SKY/WX REPORTED AS FAIR MEANS FEW OR NO CLOUDS BELOW
12 THOUSAND FEET.





USA.gov is the U.S. government's official web portal to all federal, state and local government web resources and services.